Regional Weather Roundup
Issued by NWS

Home | Current Version | Previous Version | Text Only | Print | Product List | Glossary On
Versions: 1 2 3 4 5 6 7 8 9 10 11 12 13 14 15 16 17 18 19 20 21 22 23 24 25 26 27 28 29 30 31 32 33 34 35 36 37 38 39 40 41 42 43 44 45 46 47 48 49 50
000
ASUS44 KLIX 261211
RWRLA
LOUISIANA WEATHER ROUNDUP
NATIONAL WEATHER SERVICE NEW ORLEANS LA
700 AM CDT SUN APR 26 2015

NOTE: "FAIR" INDICATES FEW OR NO CLOUDS BELOW 12,000 FEET WITH NO
      SIGNIFICANT WEATHER AND/OR OBSTRUCTIONS TO VISIBILITY.
      SKY/WX - SKY CONDITION AND SIGNIFICANT WEATHER.
      TMP - AIR TEMPERATURE.    DP   - DEWPOINT TEMPERATURE.
      RH  - RELATIVE HUMIDITY.  PRES - PRESSURE.
      HX  - HEAT INDEX.         WCI  - WIND CHILL INDEX.

*  THESE STATIONS ARE NOT NWS OR FAA STATIONS AND ARE NOT UNDER
   NWS QUALITY CONTROL.

LAZ040-048-061>063-065-066-069-261300-
SOUTHEAST LOUISIANA

CITY           SKY/WX    TMP DP  RH WIND       PRES   REMARKS
N.O. AUDUBON   NOT AVBL
N.O. INTL ARPT FOG       72  69  90 CALM      29.77R VSB 1/4
6HR MIN TEMP:  67; 6HR MAX TEMP:  72;

N.O. LAKEFRONT CLOUDY    76  70  82 NW3       29.77R
6HR MIN TEMP:  71; 6HR MAX TEMP:  76;

SLIDELL        CLOUDY    67  67 100 CALM      29.76R FOG
6HR MIN TEMP:  63; 6HR MAX TEMP:  67;

BATON ROUGE    FOG       69  68  96 SW5       29.75R VSB 1/4
6HR MIN TEMP:  64; 6HR MAX TEMP:  69;

BOOTHVILLE     CLOUDY    75  74  96 CALM      29.77R FOG
6HR MIN TEMP:  75; 6HR MAX TEMP:  77;

BELLE CHASSE   CLOUDY    69  67  93 CALM      29.76R FOG
6HR MIN TEMP:  65; 6HR MAX TEMP:  70;

BOGALUSA*        N/A     62  60  91 CALM      29.77R FOG
6HR MIN TEMP:  60; 6HR MAX TEMP:  63;

GALLIANO*      CLOUDY    71  70  97 CALM      29.76R FOG
6HR MIN TEMP:  69; 6HR MAX TEMP:  75;

NEW ROADS*     FOG       68  68  98 CALM      29.76R VSB 1/4
6HR MIN TEMP:  63; 6HR MAX TEMP:  68;

GONZALES*      CLOUDY   N/A N/A N/A W6        29.75R HAZE
HAMMOND*       FOG       68  64  88 CALM      29.78R VSB 1/4
HOUMA*         FOG       70  70 100 CALM      29.76R VSB 1/4
PORT FOURCHON* CLOUDY    77  75  94 CALM      29.80R FOG

$$

LAZ041-044-053-054-261300-
SOUTHWEST LOUISIANA

CITY           SKY/WX    TMP DP  RH WIND       PRES   REMARKS
LAKE CHARLES   CLOUDY    71  71 100 SW3       29.74R FOG
6HR MIN TEMP:  65; 6HR MAX TEMP:  71;

LAFAYETTE      FOG       69  69 100 E3        29.73S VSB<1/4
6HR MIN TEMP:  67; 6HR MAX TEMP:  70;

PATTERSON      CLOUDY    70  68  94 CALM      29.77R VSB 1/4
6HR MIN TEMP:  68; 6HR MAX TEMP:  72;

SALT POINT       N/A     74  73  97 CALM      29.74R
6HR MIN TEMP:  71; 6HR MAX TEMP:  75;

NEW IBERIA     FOG       67  66  97 SE6       29.74S VSB<1/4
6HR MIN TEMP:  66; 6HR MAX TEMP:  69;

CHENAULT AIRPK FOG       70  70 100 CALM      29.74R VSB 3/4

$$

LAZ027-028-261300-
CENTRAL LOUISIANA

CITY           SKY/WX    TMP DP  RH WIND       PRES   REMARKS
FORT POLK      FOG       67  66  97 S3        29.73R VSB 1/8
6HR MIN TEMP:  66; 6HR MAX TEMP:  68;

ALEXANDRIA INT FOG       66  66 100 W3        29.73R VSB 3/4
6HR MIN TEMP:  64; 6HR MAX TEMP:  70;

ALEXANDRIA     CLOUDY    64  64 100 CALM      29.75R FOG
6HR MIN TEMP:  60; 6HR MAX TEMP:  67;


$$

LAZ001-002-261300-
NORTHWEST LOUISIANA

CITY           SKY/WX    TMP DP  RH WIND       PRES   REMARKS
SHREVEPORT     PTCLDY    65  64  97 CALM      29.71R FOG
6HR MIN TEMP:  64; 6HR MAX TEMP:  68;

BARKSDALE AFB  FOG       63  63 100 E2        29.71R VSB 1/4
DTN SHREVEPORT PTCLDY    65  64  97 CALM      29.72R FOG
6HR MIN TEMP:  61; 6HR MAX TEMP:  69;


$$

LAZ014-016-261300-
NORTHEAST LOUISIANA

CITY           SKY/WX    TMP DP  RH WIND       PRES   REMARKS
MONROE         FOG       64  64 100 CALM      29.75R VSB 1/2
6HR MIN TEMP:  62; 6HR MAX TEMP:  70;

TALLULAH       CLEAR     63  62  97 CALM      29.75R FOG
6HR MIN TEMP:  61; 6HR MAX TEMP:  70;


$$




USA.gov is the U.S. government's official web portal to all federal, state and local government web resources and services.